This is the latest recevied weather packets stored in our database for station/object IW3HBX-3. If no packets are shown the sender has not sent any weather packets the latest 10 day(s).
| Time | Temp. | Humidity | Pressure | Rain* | Wind** | Luminosity | Snow |
|---|---|---|---|---|---|---|---|
| 1777592437 | 11.11° C | 60% | 1027.7 hPa | 0 mm | - | 0 W/m² | - |
| 1777592137 | 11.11° C | 60% | 1027.6 hPa | 0 mm | - | 0 W/m² | - |
| 1777591837 | 11.11° C | 59% | 1027.7 hPa | 0 mm | - | 0 W/m² | - |
| 1777591537 | 11.11° C | 59% | 1027.7 hPa | 0 mm | - | 0 W/m² | - |
| 1777590937 | 10.56° C | 60% | 1027.5 hPa | 0 mm | - | 0 W/m² | - |
| 1777590637 | 10.56° C | 63% | 1027.6 hPa | 0 mm | - | 0 W/m² | - |
| 1777590336 | 10.56° C | 61% | 1027.5 hPa | 0 mm | - | 0 W/m² | - |
| 1777590036 | 11.11° C | 59% | 1027.4 hPa | 0 mm | - | 0 W/m² | - |
| 1777589736 | 11.67° C | 56% | 1027.4 hPa | 0 mm | - | 0 W/m² | - |
| 1777589136 | 11.67° C | 55% | 1027.4 hPa | 0 mm | - | 0 W/m² | - |
| 1777588836 | 11.67° C | 54% | 1027.3 hPa | 0 mm | - | 0 W/m² | - |
| 1777588536 | 11.67° C | 54% | 1027.2 hPa | 0 mm | - | 0 W/m² | - |
| 1777588236 | 11.67° C | 55% | 1027.1 hPa | 0 mm | - | 0 W/m² | - |
| 1777587936 | 11.67° C | 55% | 1027.2 hPa | 0 mm | - | 0 W/m² | - |
| 1777587336 | 11.67° C | 55% | 1027.1 hPa | 0 mm | - | 0 W/m² | - |
| 1777587035 | 11.67° C | 55% | 1027 hPa | 0 mm | - | 0 W/m² | - |
| 1777586736 | 12.22° C | 55% | 1027.1 hPa | 0 mm | - | 0 W/m² | - |
| 1777586435 | 12.22° C | 55% | 1027 hPa | 0 mm | - | 0 W/m² | - |
| 1777586135 | 12.22° C | 54% | 1027 hPa | 0 mm | - | 0 W/m² | - |
| 1777585835 | 11.67° C | 55% | 1026.9 hPa | 0 mm | - | 0 W/m² | - |
| 1777585535 | 11.67° C | 55% | 1026.8 hPa | 0 mm | - | 0 W/m² | - |
| 1777585235 | 11.67° C | 58% | 1026.8 hPa | 0 mm | - | 0 W/m² | - |
| 1777584935 | 11.67° C | 59% | 1026.7 hPa | 0 mm | - | 0 W/m² | - |
| 1777584635 | 11.67° C | 60% | 1026.7 hPa | 0 mm | - | 0 W/m² | - |
| 1777584335 | 11.67° C | 60% | 1026.6 hPa | 0 mm | - | 0 W/m² | - |
* Rain latest hour (hover to see other rain measurements)
** Current wind speed in m/s (hover to see current wind gust speed)